GW1174 Weather Reports


time (UTC)temp
C
wind
direction
speed
KPH
gust
KPH
rain 1hr
cm
rain 24hr
cm
rain mn
cm
humidity
%
barometer
mb
20260509011516 5 0.0 0.0 0.00 0.00 0.00 92 1018.2
20260509010516 5 0.0 0.0 0.00 0.00 0.00 92 1018.5
20260509005557 5 0.0 0.0 0.00 0.00 0.00 92 1018.4
20260509004516 5 0.0 3.2 0.00 0.00 0.00 91 1018.6
20260509003516 5 0.0 0.0 0.00 0.00 0.00 91 1018.2
20260509002519 6 0.0 1.6 0.00 0.00 0.00 91 1018.2
20260509001516 6 0.0 3.2 0.00 0.00 0.00 91 1018.2
20260509000516 6 0.0 3.2 0.00 0.00 0.00 91 1018.3
20260508235516 6 0.0 0.0 0.00 0.00 0.00 91 1018.2
20260508234516 6 0.0 0.0 0.00 0.00 0.00 91 1018.3
20260508233516 6 0.0 0.0 0.00 0.00 0.00 91 1018.5
20260508232516 6 0.0 0.0 0.00 0.00 0.00 91 1018.4
20260508231516 6 0.0 0.0 0.00 0.00 0.00 90 1018.5
20260508230539 6 0.0 0.0 0.00 0.00 0.00 90 1018.4
20260508225516 6 0.0 1.6 0.00 0.00 0.00 90 1018.4
20260508224536 6 0.0 0.0 0.00 0.00 0.00 90 1018.5
20260508223516 6 0.0 0.0 0.00 0.00 0.00 90 1018.5
20260508222516 7 0.0 0.0 0.00 0.00 0.00 89 1018.5
20260508221516 7 0.0 1.6 0.00 0.00 0.00 89 1018.6
20260508220516 7 0.0 1.6 0.00 0.00 0.00 89 1018.5
20260508215517 7 0.0 1.6 0.00 0.00 0.00 89 1018.5
20260508214517 7 0.0 3.2 0.00 0.00 0.00 89 1018.5
20260508213517 7 0 1.6 6.4 0.00 0.00 0.00 89 1018.3
20260508212517 7 45 1.6 6.4 0.00 0.00 0.00 89 1018.3
20260508211540 7 0 3.2 6.4 0.00 0.00 0.00 88 1018.2
20260508210517 8 23 3.2 6.4 0.00 0.03 0.00 88 1018.3
20260508205517 8 0 1.6 8.0 0.00 0.03 0.00 88 1018.1
20260508204517 8 23 3.2 12.9 0.00 0.03 0.00 87 1018.2
20260508203517 8 0 1.6 8.0 0.00 0.03 0.00 87 1018.1
20260508202517 8 23 3.2 8.0 0.00 0.03 0.00 86 1017.9
20260508201517 8 23 1.6 11.3 0.00 0.03 0.00 86 1018.0
20260508200537 8 0 1.6 8.0 0.00 0.03 0.00 85 1018.0
20260508195537 8 23 1.6 4.8 0.00 0.05 0.00 85 1018.0
20260508194517 9 0 1.6 6.4 0.00 0.05 0.00 84 1017.9
20260508193517 9 0 1.6 4.8 0.00 0.05 0.00 83 1017.9
20260508192557 9 0 1.6 6.4 0.00 0.05 0.00 82 1017.8
20260508191516 10 0.0 6.4 0.00 0.05 0.00 81 1017.7
20260508190516 10 0.0 0.0 0.00 0.05 0.00 80 1017.7
20260508185537 10 0.0 1.6 0.00 0.08 0.00 79 1017.4
20260508184517 11 0.0 3.2 0.00 0.08 0.00 78 1017.1
20260508183516 11 0.0 3.2 0.00 0.08 0.00 77 1017.1
20260508182536 12 0.0 4.8 0.00 0.08 0.00 76 1017.0
20260508181516 12 0.0 3.2 0.00 0.08 0.00 75 1016.9
20260508180516 12 0 1.6 6.4 0.00 0.08 0.00 73 1016.8
20260508175516 13 0 1.6 4.8 0.00 0.08 0.00 73 1016.8
20260508174516 13 23 1.6 4.8 0.00 0.08 0.00 72 1016.7
20260508173517 13 0 3.2 8.0 0.00 0.08 0.00 73 1016.6
20260508172517 13 23 1.6 4.8 0.00 0.08 0.00 72 1016.6
20260508171517 13 0.0 4.8 0.00 0.08 0.00 72 1016.7
20260508170516 13 23 1.6 6.4 0.00 0.08 0.00 72 1016.6
20260508165516 14 45 1.6 4.8 0.00 0.08 0.00 71 1016.7
20260508164516 14 0.0 6.4 0.00 0.08 0.00 70 1016.7
20260508163517 14 0.0 3.2 0.00 0.08 0.00 69 1016.6
20260508162516 15 0.0 3.2 0.00 0.08 0.00 69 1016.5
20260508161516 15 0.0 3.2 0.00 0.08 0.00 69 1016.6
20260508160516 15 23 1.6 3.2 0.00 0.08 0.00 68 1016.6
20260508155536 15 0.0 3.2 0.00 0.08 0.00 66 1016.5
20260508154516 16 23 1.6 4.8 0.00 0.08 0.00 67 1016.7
20260508153536 16 0.0 3.2 0.00 0.08 0.00 64 1016.8
20260508152517 16 0 1.6 6.4 0.00 0.08 0.00 64 1016.9
20260508151516 16 0.0 3.2 0.00 0.08 0.00 65 1016.8
20260508150536 16 0.0 8.0 0.00 0.08 0.00 66 1017.0
20260508145556 16 0 1.6 8.0 0.00 0.08 0.00 68 1017.1
20260508144516 15 45 1.6 6.4 0.00 0.08 0.00 68 1017.0
20260508143516 16 0 1.6 6.4 0.00 0.08 0.00 62 1017.1
20260508142516 16 0 1.6 8.0 0.00 0.08 0.00 63 1017.2
20260508141516 16 158 1.6 4.8 0.00 0.10 0.00 61 1017.3
20260508140516 15 0 3.2 8.0 0.00 0.10 0.00 64 1017.2
20260508135516 16 45 1.6 4.8 0.00 0.13 0.00 67 1017.3
20260508134516 14 23 1.6 4.8 0.00 0.13 0.00 70 1017.3
20260508133536 15 0.0 3.2 0.00 0.13 0.00 69 1017.4
20260508132516 15 0 1.6 8.0 0.00 0.13 0.00 65 1017.4
20260508131516 15 68 1.6 6.4 0.00 0.13 0.00 66 1017.4
20260508130516 16 45 1.6 6.4 0.00 0.13 0.00 69 1017.6
20260508125516 15 338 1.6 4.8 0.00 0.13 0.00 73 1017.8
20260508124516 15 0.0 4.8 0.00 0.13 0.00 69 1017.9
20260508123516 13 0.0 3.2 0.00 0.13 0.00 69 1017.7
20260508122515 13 0.0 4.8 0.00 0.13 0.00 71 1017.7
20260508121516 13 0.0 1.6 0.00 0.13 0.00 71 1017.8
20260508120516 13 0.0 1.6 0.00 0.13 0.00 72 1017.6
20260508115515 12 45 1.6 4.8 0.00 0.13 0.00 69 1017.7
20260508114515 13 0.0 3.2 0.00 0.13 0.00 72 1017.6
20260508113515 13 23 1.6 6.4 0.00 0.13 0.00 73 1017.7
20260508112517 13 0 1.6 3.2 0.00 0.13 0.00 74 1017.7
20260508111516 13 0.0 1.6 0.00 0.13 0.00 77 1017.6
20260508110517 12 0.0 1.6 0.00 0.13 0.00 78 1017.6
20260508105517 12 0.0 4.8 0.00 0.13 0.00 77 1017.6
20260508104518 12 0.0 1.6 0.00 0.13 0.00 77 1017.6
20260508103517 12 0.0 4.8 0.00 0.13 0.00 78 1017.5
20260508102517 13 23 1.6 4.8 0.00 0.13 0.00 78 1017.6
20260508101518 13 23 1.6 4.8 0.00 0.13 0.00 76 1017.7
20260508100518 13 23 1.6 6.4 0.00 0.13 0.00 76 1017.7
20260508095517 13 0.0 4.8 0.00 0.13 0.00 81 1017.7
20260508094517 12 45 1.6 6.4 0.00 0.13 0.00 79 1017.6
20260508093517 12 0.0 3.2 0.00 0.13 0.00 78 1017.9
20260508092617 12 45 1.6 6.4 0.00 0.13 0.00 80 1018.0
20260508091517 12 0 1.6 6.4 0.00 0.13 0.00 83 1018.0
20260508090517 12 0.0 1.6 0.00 0.13 0.00 87 1018.0
20260508085517 11 0.0 4.8 0.00 0.13 0.00 88 1017.9
20260508084517 11 0.0 4.8 0.00 0.15 0.00 89 1018.0
20260508083517 10 0.0 0.0 0.00 0.15 0.00 89 1018.0
20260508082517 10 0.0 3.2 0.00 0.15 0.00 90 1018.1
20260508081537 10 0.0 1.6 0.00 0.15 0.00 90 1018.0
20260508080517 9 90 1.6 4.8 0.00 0.15 0.00 91 1018.0
20260508075537 9 0.0 0.0 0.00 0.15 0.00 91 1017.9
20260508074537 9 90 1.6 4.8 0.00 0.15 0.00 92 1017.8
20260508073517 9 45 1.6 6.4 0.00 0.15 0.00 92 1017.8
20260508072517 9 0.0 3.2 0.00 0.15 0.00 93 1017.6
20260508071517 8 0.0 1.6 0.00 0.15 0.00 93 1017.5
20260508070517 8 0.0 0.0 0.00 0.15 0.00 93 1017.3
20260508065517 8 0 1.6 4.8 0.00 0.15 0.00 93 1017.3
20260508064517 8 0.0 1.6 0.00 0.15 0.00 93 1017.2
20260508063517 8 0.0 0.0 0.00 0.15 0.00 94 1017.1
20260508062517 8 0.0 3.2 0.00 0.15 0.00 94 1016.9
20260508061517 8 0.0 0.0 0.00 0.15 0.00 94 1016.8
20260508060517 8 0.0 1.6 0.00 0.15 0.00 94 1016.8
20260508055517 8 0.0 0.0 0.00 0.15 0.00 94 1016.7
20260508054537 8 0.0 1.6 0.00 0.15 0.00 94 1016.5
20260508053537 8 0.0 1.6 0.00 0.15 0.00 94 1016.3
20260508052517 7 0.0 1.6 0.00 0.15 0.00 94 1016.2
20260508051537 7 0.0 1.6 0.00 0.15 0.00 94 1016.2
20260508050517 7 0.0 1.6 0.00 0.15 0.00 94 1016.2
20260508045516 7 0.0 0.0 0.00 0.15 0.00 94 1016.1
20260508044517 7 0.0 1.6 0.00 0.15 0.00 94 1016.1
20260508043517 7 0.0 0.0 0.00 0.15 0.00 94 1016.1
20260508042516 7 0.0 0.0 0.00 0.15 0.00 94 1016.0
20260508041516 7 0.0 0.0 0.00 0.15 0.00 94 1016.0
20260508040516 7 0.0 1.6 0.00 0.15 0.00 94 1015.9
20260508035517 7 0.0 3.2 0.00 0.15 0.00 94 1015.9
20260508034537 7 23 1.6 4.8 0.00 0.15 0.00 94 1015.9
20260508033517 7 23 1.6 4.8 0.00 0.15 0.00 94 1015.9
20260508032536 7 0 1.6 6.4 0.00 0.15 0.00 94 1015.8
20260508031516 7 0.0 3.2 0.00 0.15 0.00 94 1015.8
20260508030517 7 0.0 1.6 0.00 0.15 0.00 94 1015.9
20260508025517 7 0.0 1.6 0.00 0.15 0.00 94 1015.7
20260508024537 7 0.0 1.6 0.00 0.15 0.00 94 1015.7
20260508023516 7 0.0 0.0 0.00 0.15 0.00 94 1015.7
20260508022516 7 0.0 0.0 0.00 0.15 0.00 94 1015.7
20260508021517 7 0.0 0.0 0.00 0.15 0.00 94 1015.7
20260508020516 7 0.0 0.0 0.00 0.15 0.00 94 1015.8
20260508015536 7 0.0 0.0 0.00 0.15 0.00 94 1015.8
20260508014517 7 0.0 0.0 0.00 0.15 0.00 94 1016.0
20260508013600 7 0.0 1.6 0.00 0.15 0.00 94 1016.0
20260508012516 7 0.0 1.6 0.00 0.15 0.00 94 1016.0